FW0475 Weather Reports


Display with metric or nautical units.
time (UTC)temp
F
wind
direction
speed
MPH
gust
MPH
rain 1hr
in
rain 24hr
in
rain mn
in
humidity
%
barometer
mb
20260831210816 78 196 2.0 7.0 0.00 0.27 0.27 74 1014.0
20260831210338 78 200 2.0 9.0 0.00 0.27 0.27 74 1014.1
20260831205841 78 236 3.0 9.0 0.00 0.27 0.27 73 1014.1
20260831205329 78 201 3.0 8.0 0.00 0.27 0.27 74 1014.0
20260831204814 78 204 2.0 8.0 0.00 0.27 0.27 74 1014.1
20260831204316 79 196 2.0 6.0 0.00 0.27 0.27 74 1014.1
20260831203817 78 212 3.0 8.0 0.00 0.27 0.27 74 1014.1
20260831203342 78 182 4.0 10.0 0.00 0.27 0.27 74 1014.0
20260831202831 78 211 2.0 10.0 0.00 0.27 0.27 74 1013.9
20260831202351 78 201 4.0 10.0 0.00 0.27 0.27 73 1014.0
20260831201813 78 205 3.0 8.0 0.00 0.27 0.27 75 1014.0
20260831201323 78 267 3.0 7.0 0.00 0.27 0.27 74 1014.0
20260831200823 78 178 2.0 5.0 0.00 0.27 0.27 75 1014.0
20260831200325 78 257 2.0 6.0 0.00 0.27 0.27 75 1014.1
20260831195818 78 231 3.0 6.0 0.00 0.27 0.27 76 1014.1
20260831195320 77 212 2.0 7.0 0.00 0.27 0.27 76 1014.1
20260831194821 77 219 3.0 7.0 0.00 0.27 0.27 76 1014.2
20260831194330 77 245 3.0 6.0 0.00 0.27 0.27 77 1014.4
20260831193811 77 221 2.0 6.0 0.00 0.27 0.27 78 1014.4
20260831193314 76 224 2.0 8.0 0.00 0.27 0.27 79 1014.4
20260831192822 76 230 1.0 10.0 0.00 0.27 0.27 80 1014.4
20260831192324 76 168 3.0 10.0 0.00 0.27 0.27 80 1014.5
20260831191826 75 107 3.0 7.0 0.00 0.27 0.27 81 1014.4
20260831191336 75 154 2.0 7.0 0.00 0.27 0.27 82 1014.2
20260831190817 74 265 2.0 7.0 0.00 0.27 0.27 83 1014.2
20260831190319 74 152 2.0 8.0 0.01 0.27 0.27 84 1014.2
20260831185828 74 232 2.0 8.0 0.01 0.27 0.27 85 1014.3
20260831185331 74 173 2.0 4.0 0.01 0.27 0.27 85 1014.3
20260831184859 73 141 2.0 130.0 0.01 0.27 0.27 86 1014.3
20260831184321 72 222 71.0 136.0 0.01 0.27 0.27 85 1014.4
20260831183821 72 174 104.0 144.0 0.01 0.27 0.27 85 1014.6
20260831183330 72 213 129.0 137.0 0.02 0.27 0.27 85 1014.6
20260831182830 72 169 135.0 157.0 0.08 0.27 0.27 85 1014.6
20260831182312 72 360 132.0 138.0 0.13 0.27 0.27 85 1014.7
20260831181813 72 178 134.0 138.0 0.15 0.27 0.27 85 1014.7
20260831181343 72 175 146.0 154.0 0.15 0.27 0.27 85 1014.7
20260831180822 72 360 137.0 138.0 0.17 0.27 0.27 84 1014.9
20260831180330 72 217 134.0 136.0 0.17 0.26 0.26 84 1014.8
20260831175858 72 360 132.0 136.0 0.17 0.26 0.26 85 1014.6
20260831175340 72 183 132.0 152.0 0.17 0.26 0.26 84 1014.7
20260831174820 72 212 136.0 136.0 0.17 0.26 0.26 84 1014.7
20260831174328 72 213 134.0 136.0 0.17 0.26 0.26 84 1014.7
20260831173827 72 227 133.0 137.0 0.17 0.26 0.26 84 1014.6
20260831173335 72 360 136.0 137.0 0.16 0.25 0.25 83 1014.6
20260831172818 72 360 133.0 136.0 0.09 0.18 0.18 83 1014.9
20260831172337 72 153 131.0 144.0 0.04 0.13 0.13 82 1015.4
20260831171824 72 360 134.0 136.0 0.03 0.12 0.12 82 1015.5
20260831171326 73 192 138.0 136.0 0.03 0.12 0.12 81 1015.5
20260831170826 73 360 3.0 9.0 0.01 0.10 0.10 80 1015.6
20260831170334 74 254 1.0 14.0 0.00 0.09 0.09 79 1015.6
20260831165843 74 235 4.0 14.0 0.00 0.09 0.09 78 1015.9
20260831165324 75 253 3.0 10.0 0.00 0.09 0.09 78 1014.9
20260831164825 75 273 3.0 8.0 0.00 0.09 0.09 78 1014.6
20260831164334 75 220 3.0 8.0 0.00 0.09 0.09 79 1014.5
20260831163835 74 192 2.0 6.0 0.00 0.09 0.09 81 1014.1
20260831163321 74 154 2.0 4.0 0.00 0.09 0.09 81 1014.3
20260831162822 74 190 1.0 5.0 0.00 0.09 0.09 81 1014.7
20260831162324 74 215 2.0 6.0 0.00 0.09 0.09 81 1014.9
20260831161833 74 193 2.0 9.0 0.00 0.09 0.09 81 1014.8
20260831161314 73 170 2.0 9.0 0.00 0.09 0.09 82 1015.0
20260831160821 73 142 2.0 6.0 0.00 0.09 0.09 82 1015.0
20260831160324 73 108 2.0 6.0 0.00 0.09 0.09 81 1015.0
20260831155825 74 68 3.0 8.0 0.00 0.09 0.09 81 1015.0
20260831155335 74 139 2.0 8.0 0.00 0.09 0.09 81 1015.0
20260831154815 74 272 2.0 7.0 0.00 0.09 0.09 82 1014.9
20260831154317 73 22 2.0 6.0 0.00 0.09 0.09 82 1015.0
20260831153825 73 138 2.0 5.0 0.00 0.09 0.09 83 1015.1
20260831153326 73 81 2.0 5.0 0.00 0.09 0.09 84 1015.2
20260831152828 73 344 1.0 4.0 0.00 0.09 0.09 85 1015.1
20260831152336 73 121 1.0 5.0 0.00 0.09 0.09 85 1015.2
20260831151817 72 82 2.0 5.0 0.00 0.09 0.09 85 1015.5
20260831151319 72 136 1.0 5.0 0.00 0.09 0.09 85 1015.6
20260831150826 72 70 1.0 5.0 0.00 0.09 0.09 85 1015.6
20260831150328 72 84 2.0 5.0 0.00 0.09 0.09 85 1015.6
20260831145858 72 344 2.0 136.0 0.00 0.09 0.09 85 1015.8
20260831145318 72 63 23.0 138.0 0.00 0.09 0.09 86 1015.8
20260831144822 72 360 120.0 138.0 0.00 0.09 0.09 86 1015.8
20260831144330 71 5 138.0 139.0 0.00 0.09 0.09 86 1015.9
20260831143813 71 72 136.0 138.0 0.00 0.09 0.09 86 1015.8
20260831143314 71 61 135.0 139.0 0.00 0.09 0.09 86 1015.8
20260831142817 71 278 136.0 143.0 0.00 0.09 0.09 86 1015.7
20260831142325 71 59 136.0 138.0 0.00 0.09 0.09 86 1015.6
20260831141826 71 55 137.0 139.0 0.00 0.09 0.09 86 1015.5
20260831141329 71 66 138.0 139.0 0.00 0.09 0.09 86 1015.7
20260831140835 71 31 136.0 138.0 0.00 0.09 0.09 86 1015.8
20260831140339 71 57 136.0 137.0 0.00 0.09 0.09 86 1015.7
20260831135825 71 266 137.0 145.0 0.00 0.09 0.09 86 1015.9
20260831135347 71 46 136.0 138.0 0.01 0.09 0.09 86 1015.9
20260831134836 71 73 136.0 137.0 0.01 0.09 0.09 86 1015.8
20260831134318 71 360 136.0 137.0 0.01 0.09 0.09 86 1015.9
20260831133825 71 350 136.0 137.0 0.01 0.09 0.09 86 1015.8
20260831133327 71 34 136.0 137.0 0.02 0.09 0.09 86 1015.7
20260831132828 71 83 137.0 138.0 0.03 0.09 0.09 86 1015.8
20260831132336 71 76 136.0 137.0 0.03 0.09 0.09 86 1015.8
20260831131818 71 61 136.0 137.0 0.03 0.09 0.09 86 1015.6
20260831131321 71 69 136.0 137.0 0.04 0.09 0.09 86 1015.8
20260831130827 71 37 136.0 137.0 0.05 0.09 0.09 86 1015.9
20260831130328 71 70 136.0 136.0 0.05 0.09 0.09 86 1015.8
20260831125830 71 65 137.0 138.0 0.05 0.09 0.09 86 1015.7
20260831125313 70 74 136.0 137.0 0.04 0.08 0.08 86 1015.6
20260831124844 70 76 136.0 139.0 0.04 0.08 0.08 86 1015.9
20260831124332 71 96 139.0 139.0 0.04 0.08 0.08 86 1015.9
20260831123812 71 171 141.0 144.0 0.04 0.08 0.08 86 1016.0
20260831123336 71 61 137.0 137.0 0.04 0.07 0.07 86 1016.3
20260831122846 71 360 133.0 134.0 0.04 0.06 0.06 86 1016.4
20260831122326 71 360 137.0 152.0 0.05 0.06 0.06 86 1016.1
20260831121815 71 10 139.0 138.0 0.06 0.06 0.06 86 1016.1
20260831121315 71 360 133.0 138.0 0.05 0.05 0.05 86 1016.6
20260831120843 71 198 132.0 136.0 0.04 0.05 0.04 85 1016.8
20260831120323 71 325 136.0 137.0 0.04 0.05 0.04 85 1016.3
20260831115825 71 20 136.0 136.0 0.04 0.05 0.04 85 1016.3
20260831115333 71 61 135.0 137.0 0.04 0.05 0.04 85 1016.2
20260831114815 71 304 135.0 137.0 0.04 0.05 0.04 85 1016.2
20260831114316 71 61 133.0 137.0 0.04 0.05 0.04 85 1016.1
20260831113844 71 52 137.0 138.0 0.04 0.05 0.04 85 1016.0
20260831113324 71 74 137.0 139.0 0.03 0.04 0.03 85 1016.5
20260831112832 71 61 135.0 136.0 0.02 0.03 0.02 85 1016.9
20260831112312 71 201 134.0 138.0 0.00 0.01 0.00 86 1017.3
20260831111813 71 360 2.0 4.0 0.00 0.01 0.00 86 1017.1
20260831111324 71 217 2.0 4.0 0.00 0.01 0.00 86 1016.6
20260831110825 71 244 1.0 3.0 0.00 0.13 0.00 86 1016.1
20260831110354 71 355 1.0 2.0 0.00 0.13 0.00 86 1015.9
20260831105814 71 74 1.0 2.0 0.00 0.13 0.00 86 1015.8
20260831105317 70 72 1.0 2.0 0.00 0.13 0.00 86 1015.7
20260831104826 70 73 1.0 3.0 0.00 0.13 0.00 86 1015.4
20260831104328 70 74 2.0 3.0 0.00 0.13 0.00 85 1015.3
20260831103829 70 73 1.0 2.0 0.00 0.13 0.00 85 1015.3
20260831103337 71 75 0.0 2.0 0.00 0.13 0.00 85 1015.3
20260831102819 71 77 0.0 3.0 0.00 0.13 0.00 86 1015.3
20260831102339 71 75 2.0 3.0 0.00 0.13 0.00 85 1015.3
20260831101828 71 76 1.0 3.0 0.00 0.13 0.00 85 1015.3
20260831101332 71 76 1.0 3.0 0.00 0.13 0.00 85 1015.3
20260831100812 71 75 1.0 3.0 0.00 0.14 0.00 85 1015.4
20260831100319 71 74 1.0 2.0 0.00 0.14 0.00 85 1015.5
20260831095820 71 74 0.0 2.0 0.00 0.14 0.00 85 1015.6
20260831095349 71 75 1.0 2.0 0.00 0.14 0.00 85 1015.6
20260831094828 71 74 0.0 2.0 0.00 0.14 0.00 85 1015.6
20260831094337 71 74 1.0 2.0 0.00 0.14 0.00 85 1015.8
20260831093840 71 74 1.0 2.0 0.00 0.14 0.00 85 1015.9
20260831093319 71 75 1.0 3.0 0.00 0.14 0.00 85 1016.0
20260831092827 71 73 0.0 3.0 0.00 0.14 0.00 85 1016.1
20260831092330 71 73 1.0 3.0 0.00 0.14 0.00 85 1016.1
20260831091811 71 72 2.0 3.0 0.00 0.14 0.00 85 1016.1
20260831091320 71 75 2.0 3.0 0.00 0.14 0.00 85 1016.3
20260831090823 71 71 1.0 3.0 0.00 0.14 0.00 85 1016.4
20260831090353 71 72 1.0 3.0 0.00 0.14 0.00 85 1016.4
20260831085812 71 74 1.0 2.0 0.00 0.14 0.00 85 1016.5
20260831085314 71 73 2.0 3.0 0.00 0.14 0.00 85 1016.6
20260831084815 71 72 2.0 3.0 0.00 0.14 0.00 85 1016.5
20260831084344 71 72 2.0 3.0 0.00 0.14 0.00 85 1016.5
20260831083830 71 71 1.0 3.0 0.00 0.14 0.00 85 1016.5
20260831083314 71 69 2.0 2.0 0.00 0.14 0.00 85 1016.4
20260831082837 71 70 1.0 3.0 0.00 0.14 0.00 85 1016.3
20260831082346 71 70 1.0 3.0 0.00 0.14 0.00 85 1016.2
20260831081832 71 69 1.0 2.0 0.00 0.14 0.00 85 1016.1
20260831081334 71 69 1.0 2.0 0.00 0.14 0.00 85 1016.1
20260831080841 71 69 1.0 2.0 0.00 0.14 0.00 85 1016.1
20260831080320 71 68 1.0 2.0 0.00 0.14 0.00 85 1016.0
20260831075829 71 64 1.0 2.0 0.00 0.14 0.00 85 1016.0
20260831075329 71 67 1.0 2.0 0.00 0.14 0.00 85 1016.1
20260831074830 71 69 1.0 2.0 0.00 0.14 0.00 85 1016.1
20260831074312 71 68 2.0 3.0 0.00 0.14 0.00 85 1016.3
20260831073819 71 72 1.0 3.0 0.00 0.14 0.00 85 1016.2
20260831073341 71 74 1.0 3.0 0.00 0.14 0.00 85 1016.3
20260831072828 71 71 1.0 3.0 0.00 0.14 0.00 85 1016.5
20260831072330 71 71 1.0 3.0 0.00 0.14 0.00 85 1016.5
20260831071811 71 69 1.0 2.0 0.00 0.14 0.00 85 1016.6
20260831071321 71 70 0.0 2.0 0.00 0.14 0.00 85 1016.7
20260831070822 71 70 1.0 2.0 0.00 0.14 0.00 85 1016.6
20260831070350 71 69 1.0 2.0 0.00 0.14 0.00 85 1016.6
20260831065828 71 70 1.0 2.0 0.00 0.14 0.00 85 1016.9
20260831065335 71 69 1.0 2.0 0.00 0.14 0.00 85 1016.8
20260831064817 71 69 1.0 2.0 0.00 0.14 0.00 85 1016.9
20260831064340 71 70 1.0 2.0 0.00 0.14 0.00 85 1016.8
20260831063826 71 65 0.0 2.0 0.00 0.14 0.00 85 1016.9
20260831063327 71 77 1.0 3.0 0.00 0.14 0.00 85 1017.0
20260831062835 71 76 1.0 3.0 0.00 0.14 0.00 85 1017.0
20260831062315 71 75 1.0 2.0 0.00 0.14 0.00 85 1016.9
20260831061816 71 74 1.0 2.0 0.00 0.14 0.00 85 1017.0
20260831061325 71 76 1.0 2.0 0.00 0.14 0.00 85 1017.0
20260831060825 71 74 1.0 3.0 0.00 0.14 0.00 85 1017.0
20260831060333 71 76 1.0 3.0 0.00 0.14 0.00 85 1016.9
20260831055814 71 76 1.0 3.0 0.00 0.14 0.00 85 1016.7
20260831055316 71 76 2.0 3.0 0.00 0.14 0.00 85 1016.5
20260831054818 71 75 1.0 2.0 0.00 0.14 0.00 85 1016.5
20260831054327 71 73 1.0 2.0 0.00 0.14 0.00 85 1016.4
20260831053827 71 75 1.0 2.0 0.00 0.14 0.00 85 1016.4
20260831053329 71 74 1.0 3.0 0.00 0.14 0.00 84 1016.3
20260831052816 71 75 1.0 3.0 0.00 0.14 0.00 85 1016.4
20260831052317 71 76 1.0 3.0 0.00 0.14 0.00 84 1016.3
20260831051818 71 76 1.0 3.0 0.00 0.14 0.00 84 1016.4
20260831051328 71 78 1.0 3.0 0.00 0.14 0.00 84 1016.4
20260831050828 71 76 2.0 3.0 0.00 0.14 0.00 84 1016.5
20260831050329 71 76 1.0 3.0 0.00 0.14 0.00 84 1016.5
20260831045818 71 75 1.0 2.0 0.00 0.14 0.00 84 1016.6
20260831045319 71 75 1.0 2.0 0.00 0.14 0.00 84 1016.5
20260831044821 71 77 1.0 3.0 0.00 0.14 0.00 84 1016.4
20260831044329 71 77 2.0 3.0 0.00 0.14 0.00 84 1016.4
20260831043831 71 76 1.0 3.0 0.00 0.14 0.00 84 1016.4
20260831043359 71 78 2.0 3.0 0.00 0.14 0.00 83 1016.4
20260831042819 71 83 1.0 3.0 0.00 0.14 0.00 83 1016.5
20260831042321 71 84 2.0 3.0 0.00 0.14 0.00 83 1016.5
20260831041829 71 84 2.0 3.0 0.00 0.14 0.00 82 1016.5
20260831041351 71 82 1.0 2.0 0.00 0.14 0.00 82 1016.5
20260831040839 71 90 2.0 2.0 0.00 0.14 0.14 81 1016.5
20260831040316 72 88 1.0 2.0 0.00 0.14 0.14 81 1016.7
20260831035814 72 90 0.0 2.0 0.00 0.14 0.14 81 1016.7
20260831035322 72 90 1.0 2.0 0.00 0.14 0.14 81 1016.7
20260831034821 72 88 1.0 2.0 0.00 0.14 0.14 81 1016.6
20260831034350 72 90 1.0 2.0 0.00 0.14 0.14 81 1016.6
20260831033851 72 90 1.0 2.0 0.00 0.14 0.14 81 1016.6
20260831033315 72 90 1.0 2.0 0.00 0.14 0.14 80 1016.7
20260831032817 72 88 1.0 2.0 0.00 0.14 0.14 80 1016.7
20260831032319 72 90 1.0 2.0 0.00 0.14 0.14 80 1016.5
20260831031828 72 160 1.0 2.0 0.00 0.14 0.14 80 1016.6
20260831031330 73 225 0.0 1.0 0.00 0.14 0.14 80 1016.6
20260831030830 73 227 0.0 1.0 0.00 0.14 0.14 80 1016.7
20260831030313 73 225 0.0 1.0 0.00 0.14 0.14 80 1016.6
20260831025821 73 225 0.0 2.0 0.00 0.14 0.14 80 1016.7
20260831025324 73 226 0.0 2.0 0.00 0.14 0.14 80 1016.7
20260831024833 73 227 1.0 2.0 0.00 0.14 0.14 80 1016.7
20260831024337 73 293 0.0 1.0 0.00 0.14 0.14 80 1016.7
20260831023816 73 294 0.0 1.0 0.00 0.14 0.14 80 1016.7
20260831023345 73 293 0.0 1.0 0.00 0.14 0.14 80 1016.8
20260831022834 73 221 0.0 1.0 0.00 0.14 0.14 80 1016.9
20260831022315 73 220 0.0 2.0 0.00 0.14 0.14 80 1016.7
20260831021838 73 219 1.0 3.0 0.00 0.14 0.14 80 1016.8
20260831021326 73 230 0.0 3.0 0.00 0.14 0.14 80 1016.8
20260831020826 73 202 1.0 3.0 0.00 0.14 0.14 80 1016.8
20260831020337 73 212 0.0 3.0 0.00 0.14 0.14 80 1016.7
20260831015815 73 213 1.0 3.0 0.00 0.14 0.14 80 1016.8
20260831015317 73 215 1.0 3.0 0.00 0.14 0.14 80 1016.8
20260831014828 73 213 1.0 3.0 0.00 0.14 0.14 81 1016.7
20260831014329 73 218 1.0 3.0 0.00 0.14 0.14 81 1016.5
20260831013835 73 206 1.0 2.0 0.00 0.14 0.14 81 1016.4
20260831013337 73 209 1.0 2.0 0.00 0.14 0.14 81 1016.3
20260831012817 72 263 0.0 2.0 0.00 0.14 0.14 81 1016.2
20260831012325 72 203 0.0 2.0 0.00 0.14 0.14 81 1016.0
20260831011826 72 99 0.0 2.0 0.00 0.14 0.14 81 1015.8
20260831011329 72 98 0.0 2.0 0.00 0.14 0.14 80 1015.6
20260831010837 72 99 0.0 2.0 0.00 0.14 0.14 80 1015.8
20260831010318 72 100 0.0 2.0 0.00 0.14 0.14 80 1015.8
20260831005821 72 101 1.0 2.0 0.00 0.14 0.14 80 1015.6
20260831005330 72 37 0.0 2.0 0.00 0.14 0.14 80 1015.6
20260831004851 72 34 0.0 2.0 0.00 0.14 0.14 80 1015.7
20260831004313 72 219 0.0 6.0 0.00 0.14 0.14 80 1015.6
20260831003821 72 190 1.0 6.0 0.00 0.14 0.14 80 1015.6
20260831003323 72 208 2.0 4.0 0.00 0.14 0.14 80 1015.5
20260831002833 72 195 1.0 5.0 0.00 0.14 0.14 80 1015.5
20260831002314 73 238 2.0 6.0 0.00 0.14 0.14 79 1015.6
20260831001815 73 232 3.0 8.0 0.00 0.14 0.14 79 1015.6
20260831001319 73 238 4.0 9.0 0.00 0.14 0.14 79 1015.6
20260831000826 73 277 5.0 10.0 0.00 0.14 0.14 79 1015.6
20260831000328 73 210 5.0 10.0 0.00 0.14 0.14 79 1015.6
20260830235836 73 208 5.0 9.0 0.00 0.14 0.14 78 1015.6
20260830235318 73 211 6.0 10.0 0.00 0.14 0.14 78 1015.5
20260830234819 73 213 7.0 11.0 0.00 0.14 0.14 78 1015.4
20260830234322 73 228 8.0 11.0 0.00 0.14 0.14 77 1015.5
20260830233829 73 223 9.0 11.0 0.00 0.14 0.14 77 1015.5
20260830233311 73 222 9.0 12.0 0.00 0.14 0.14 77 1015.6
20260830232813 73 215 9.0 12.0 0.00 0.14 0.14 77 1015.6
20260830232323 73 205 9.0 12.0 0.00 0.14 0.14 78 1015.5
20260830231824 73 215 9.0 12.0 0.00 0.14 0.14 78 1015.6
20260830231327 73 221 8.0 10.0 0.00 0.14 0.14 79 1015.5
20260830230836 73 205 7.0 12.0 0.00 0.14 0.14 79 1015.5
20260830230317 73 230 7.0 10.0 0.00 0.14 0.14 78 1015.5
20260830225818 73 213 7.0 10.0 0.00 0.14 0.14 78 1015.3
20260830225348 73 239 7.0 10.0 0.00 0.14 0.14 78 1015.3
20260830224829 73 229 6.0 10.0 0.00 0.14 0.14 78 1015.3
20260830224314 73 223 7.0 10.0 0.00 0.14 0.14 78 1015.3
20260830223821 73 283 6.0 10.0 0.00 0.14 0.14 78 1015.4
20260830223325 74 265 6.0 11.0 0.00 0.14 0.14 78 1015.3
20260830222832 74 240 5.0 11.0 0.00 0.14 0.14 78 1015.3
20260830222314 74 238 5.0 12.0 0.00 0.14 0.14 78 1015.4
20260830221815 74 217 5.0 12.0 0.00 0.14 0.14 78 1015.4
20260830221317 74 225 5.0 10.0 0.00 0.14 0.14 77 1015.3
20260830220825 74 212 5.0 10.0 0.00 0.14 0.14 77 1015.3
20260830220326 74 230 3.0 10.0 0.00 0.14 0.14 77 1015.3
20260830215835 74 205 3.0 11.0 0.00 0.14 0.14 78 1015.2
20260830215317 74 219 5.0 11.0 0.00 0.14 0.14 77 1015.2
20260830214819 74 205 5.0 11.0 0.00 0.14 0.14 77 1015.2
20260830214322 74 184 4.0 11.0 0.00 0.14 0.14 77 1015.2
20260830213830 74 226 5.0 10.0 0.00 0.14 0.14 77 1015.2
20260830213311 74 201 4.0 11.0 0.00 0.14 0.14 77 1015.2
20260830212815 74 203 4.0 11.0 0.00 0.14 0.14 77 1015.3
20260830212324 74 219 4.0 11.0 0.00 0.14 0.14 77 1015.3
20260830211827 74 203 3.0 11.0 0.00 0.14 0.14 77 1015.4
20260830211330 75 229 4.0 9.0 0.00 0.14 0.14 76 1015.4